Weather History for KMBS - November, 2011

Change the Weather History Date:

Sunday, November 27, 2011

  Actual Average Record
Temperature  
Mean Temperature 45 °F 34 °F  
Max Temperature 55 °F 40 °F 55 °F (2006)
Min Temperature 34 °F 27 °F 15 °F (2002)
Degree Days  
Heating Degree Days 20    
Month to date heating degree days  
Since 1 July heating degree days  
Cooling Degree Days 0    
Month to date cooling degree days  
Year to date cooling degree days  
Moisture  
Dew Point 43 °F    
Average Humidity 91    
Maximum Humidity 100    
Minimum Humidity 78    
Precipitation  
Precipitation 0.35 in 0.08 in 0.63 in (2004)
Month to date precipitation 2.47  
Year to date precipitation 29.45  
Snow  
Snow 0.00 in - - ()
Month to date snowfall  
Since 1 July snowfall  
Since 1 September snowfall  
Snow Depth -    
Sea Level Pressure  
Sea Level Pressure 29.82 in    
Wind  
Wind Speed 12 mph (NW)    
Max Wind Speed 17 mph    
Max Gust Speed 24 mph    
Visibility 8 miles    
Events Rain    
T = Trace of Precipitation, MM = Missing Value Source: NWS Daily Summary

Daily Weather History Graph

Daily Weather History Graph

Search for Another Location

Airport or City:

Trip Planner

Search our weather history database for the weather conditions in past years. The results will help you decide how hot, cold, wet, or windy it might be!

Date:

Astronomy

Nov. 27, 2011 Rise Set
Actual Time 7:44 AM EST 5:02 PM EST
Civil Twilight 7:12 AM EST 5:34 PM EST
Nautical Twilight 6:37 AM EST 6:10 PM EST
Astronomical Twilight 6:03 AM EST 6:44 PM EST
Moon 10:09 AM EST (11/27) 7:40 PM EST (11/27)
Length of Visible Light 10h 21m
Length of Day
9h 18m
Waxing Crescent, 8% of the Moon is Illuminated
Nov 27
Waxing Crescent
Dec 2
First Quarter
Dec 10
Full
Dec 17
Last Quarter
Dec 24
New

Hourly Weather History & Observations

Time (EST) Temp. Windchill Dew Point Humidity Pressure Visibility Wind Dir Wind Speed Gust Speed Precip Events Conditions
12:02 AM 55.4 °F - 53.6 °F 94% 29.79 in 9.0 mi South 11.5 mph 24.2 mph 0.00 in Rain Light Rain
12:53 AM 55.0 °F - 52.0 °F 89% 29.75 in 10.0 mi South 12.7 mph 19.6 mph 0.01 in Rain Light Rain
1:53 AM 55.0 °F - 51.1 °F 86% 29.73 in 10.0 mi South 13.8 mph 19.6 mph 0.04 in Rain Light Rain
2:53 AM 54.0 °F - 51.1 °F 90% 29.73 in 10.0 mi South 13.8 mph 20.7 mph 0.03 in Rain Light Rain
3:02 AM 53.6 °F - 51.8 °F 94% 29.72 in 10.0 mi South 13.8 mph 21.9 mph 0.00 in Rain Light Rain
3:53 AM 54.0 °F - 52.0 °F 93% 29.70 in 9.0 mi South 13.8 mph - 0.01 in Rain Light Rain
4:25 AM 53.6 °F - 51.8 °F 94% 29.69 in 10.0 mi South 10.4 mph 20.7 mph 0.01 in Rain Light Rain
4:45 AM 53.6 °F - 51.8 °F 94% 29.69 in 10.0 mi South 11.5 mph - 0.01 in Rain Light Rain
4:53 AM 54.0 °F - 52.0 °F 93% 29.69 in 10.0 mi South 15.0 mph - 0.01 in Rain Light Rain
5:51 AM 53.6 °F - 51.8 °F 94% 29.68 in 10.0 mi South 12.7 mph 20.7 mph 0.02 in   Overcast
5:53 AM 54.0 °F - 52.0 °F 93% 29.69 in 10.0 mi SSW 12.7 mph - 0.02 in   Overcast
6:17 AM 53.6 °F - 51.8 °F 94% 29.70 in 4.0 mi West 9.2 mph - 0.00 in Rain Light Rain
6:42 AM 53.6 °F - 51.8 °F 94% 29.70 in 8.0 mi WSW 6.9 mph - 0.00 in Rain Light Rain
6:53 AM 54.0 °F - 52.0 °F 93% 29.71 in 6.0 mi WSW 5.8 mph - 0.01 in Rain Light Rain
6:59 AM 53.6 °F - 51.8 °F 94% 29.71 in 6.0 mi West 6.9 mph - 0.00 in   Overcast
7:23 AM 51.8 °F - 51.8 °F 100% 29.72 in 3.0 mi NNW 9.2 mph - 0.01 in Rain Light Rain
7:53 AM 51.1 °F - 50.0 °F 96% 29.73 in 8.0 mi NNW 5.8 mph - 0.03 in Rain Light Rain
8:21 AM 51.8 °F - 50.0 °F 94% 29.73 in 2.5 mi NNW 6.9 mph - 0.01 in Rain Light Rain
8:38 AM 50.0 °F - 48.2 °F 94% 29.75 in 2.5 mi NW 13.8 mph - 0.02 in Rain Light Rain
8:48 AM 48.2 °F - 48.2 °F 100% 29.76 in 1.5 mi NW 12.7 mph - 0.02 in Rain Light Rain
8:53 AM 48.9 °F - 46.9 °F 93% 29.76 in 1.5 mi NW 13.8 mph - 0.02 in Rain Light Rain
9:09 AM 48.2 °F - 46.4 °F 93% 29.76 in 2.0 mi NNW 15.0 mph - 0.01 in Rain Light Rain
9:53 AM 46.4 °F 40.7 °F 46.4 °F 100% 29.79 in 2.0 mi NW 12.7 mph - N/A Rain Light Rain
10:00 AM 46.4 °F 40.4 °F 44.6 °F 93% 29.79 in 2.0 mi NW 13.8 mph - 0.00 in Rain Light Rain
10:19 AM 46.4 °F 40.4 °F 44.6 °F 93% 29.80 in 6.0 mi NW 13.8 mph - 0.00 in Rain Light Rain
10:35 AM 46.4 °F 40.4 °F 44.6 °F 93% 29.80 in 10.0 mi NNW 13.8 mph - 0.00 in   Overcast
10:53 AM 46.0 °F 39.0 °F 43.0 °F 89% 29.82 in 10.0 mi NNW 17.3 mph 23.0 mph 0.01 in   Overcast
11:12 AM 44.6 °F 37.8 °F 42.8 °F 93% 29.82 in 10.0 mi NW 15.0 mph - 0.00 in Rain Light Rain
11:45 AM 44.6 °F 38.8 °F 41.0 °F 87% 29.82 in 10.0 mi NNW 11.5 mph - 0.01 in Rain Light Rain
11:53 AM 44.1 °F 38.1 °F 41.0 °F 89% 29.83 in 7.0 mi NW 11.5 mph - 0.02 in Rain Light Rain
11:59 AM 42.8 °F 36.2 °F 41.0 °F 93% 29.82 in 6.0 mi NW 12.7 mph - 0.00 in Rain Light Rain
12:26 PM 42.8 °F 35.4 °F 39.2 °F 87% 29.82 in 9.0 mi NW 15.0 mph - 0.02 in Rain Light Rain
12:53 PM 42.1 °F 35.2 °F 37.9 °F 85% 29.84 in 10.0 mi NW 12.7 mph - 0.03 in Rain Light Rain
1:35 PM 41.0 °F 33.5 °F 37.4 °F 87% 29.84 in 8.0 mi NNW 13.8 mph - 0.02 in Rain Light Rain
1:43 PM 41.0 °F 33.9 °F 37.4 °F 87% 29.85 in 9.0 mi NW 12.7 mph - 0.03 in Rain Light Rain
1:51 PM 41.0 °F 33.5 °F 37.4 °F 87% 29.85 in 10.0 mi NNW 13.8 mph - 0.03 in Rain Light Rain
1:53 PM 41.0 °F 33.1 °F 37.9 °F 89% 29.86 in 10.0 mi NNW 15.0 mph - 0.03 in Rain Light Rain
2:03 PM 41.0 °F 34.3 °F 37.4 °F 87% 29.86 in 8.0 mi NNW 11.5 mph - 0.01 in Rain Light Rain
2:29 PM 39.2 °F 31.6 °F 37.4 °F 93% 29.85 in 9.0 mi NNW 12.7 mph - 0.03 in Rain Light Rain
2:53 PM 39.9 °F 32.5 °F 37.0 °F 89% 29.88 in 10.0 mi NNW 12.7 mph - 0.04 in Rain Light Rain
3:53 PM 39.0 °F 32.8 °F 37.0 °F 93% 29.91 in 10.0 mi NNW 9.2 mph - 0.01 in Rain Light Rain
4:53 PM 37.9 °F 32.1 °F 35.1 °F 89% 29.94 in 10.0 mi NW 8.1 mph - 0.02 in Rain Light Rain
5:12 PM 37.4 °F 32.1 °F 35.6 °F 93% 29.94 in 10.0 mi NW 6.9 mph - 0.00 in Rain Light Rain
5:25 PM 37.4 °F 30.3 °F 33.8 °F 87% 29.94 in 10.0 mi NW 10.4 mph - 0.00 in Rain Light Rain
5:53 PM 37.0 °F 31.0 °F 35.1 °F 93% 29.98 in 10.0 mi NW 8.1 mph - 0.00 in Rain Light Rain
6:53 PM 37.0 °F 30.4 °F 34.0 °F 89% 29.99 in 10.0 mi NW 9.2 mph - 0.01 in Rain Light Rain
7:53 PM 37.0 °F 28.9 °F 32.0 °F 82% 30.02 in 10.0 mi NW 12.7 mph - 0.00 in   Overcast
8:53 PM 36.0 °F 28.5 °F 30.0 °F 79% 30.03 in 10.0 mi NW 10.4 mph - N/A   Overcast
9:53 PM 35.1 °F 27.4 °F 30.0 °F 82% 30.07 in 10.0 mi NW 10.4 mph - N/A   Overcast
10:53 PM 35.1 °F 27.4 °F 28.9 °F 78% 30.06 in 10.0 mi NNW 10.4 mph - N/A   Overcast
11:53 PM 34.0 °F 31.0 °F 28.9 °F 82% 30.09 in 10.0 mi NW 3.5 mph - N/A   Overcast